Tracking 29781 objects as of 15-Oct-2024
HD Live streaming from Space Station
objects crossing your sky now

DELTA 1 DEB

Track DELTA 1 DEB now!
10-day predictions


NORAD ID: 21341
Int'l Code: 1975-052BK
Perigee: 1,048.5 km
Apogee: 1,827.2 km
Inclination: 99.7 °
Period: 114.5 minutes
Semi major axis: 7808 km
RCS: 0.1589 m2 (medium)
Launch date: June 12, 1975
Source: United States (US)
Launch site: AIR FORCE WESTERN TEST RANGE (AFWTR)

Note: This is SATELLITE DEBRIS
Your satellite tracking list
Your tracking list is empty




NASA's NSSDC Master Catalog

Two Line Element Set (TLE):
1 21341U 75052BK  24288.32274928  .00000392  00000-0  15850-2 0  9996
2 21341  99.7467  64.4097 0498628 257.4920 132.9445 12.58119802533007
Source of the keplerian elements: AFSPC